FW0765 Weather Reports


Display with metric or nautical units.
time (UTC)temp
F
wind
direction
speed
MPH
gust
MPH
rain 1hr
in
rain 24hr
in
rain mn
in
humidity
%
barometer
mb
20260502194557 69 146 3.0 9.0 0.00 0.02 0.00 52 1023.0
20260502193050 69 140 3.0 11.0 0.00 0.02 0.00 49 1023.1
20260502191550 69 5 3.0 10.0 0.00 0.02 0.00 47 1023.1
20260502190051 69 72 3.0 9.0 0.00 0.02 0.00 52 1023.4
20260502184551 69 84 2.0 9.0 0.00 0.09 0.00 49 1023.5
20260502183044 68 70 6.0 13.0 0.00 0.09 0.00 53 1023.6
20260502181546 68 96 3.0 12.0 0.00 0.09 0.00 55 1023.8
20260502163041 64 38 4.0 7.0 0.00 0.19 0.00 62 1025.0
20260502161526 64 5 2.0 5.0 0.00 0.19 0.00 62 1024.9
20260502151527 60 296 2.0 5.0 0.00 0.21 0.00 67 1024.9
20260502123047 50 62 0.0 1.0 0.00 0.26 0.00 91 1023.6
20260502121538 50 92 0.0 1.0 0.00 0.26 0.00 91 1023.4
20260502114534 50 92 0.0 2.0 0.00 0.33 0.00 91 1023.2
20260502113034 50 92 0.0 4.0 0.00 0.33 0.00 91 1023.1
20260502111533 50 92 0.0 3.0 0.00 0.33 0.00 91 1022.9
20260502110030 50 76 1.0 3.0 0.00 0.33 0.00 91 1022.6
20260502104532 50 75 1.0 3.0 0.00 0.38 0.00 91 1022.5
20260502103027 50 75 0.0 3.0 0.00 0.38 0.00 91 1022.1
20260502101524 50 74 0.0 2.0 0.00 0.38 0.00 90 1021.9
20260502091509 50 74 0.0 3.0 0.00 0.38 0.00 90 1020.9
20260502070049 49 74 0.0 1.0 0.00 0.39 0.00 91 1021.3
20260502064543 48 74 0.0 2.0 0.00 0.39 0.00 90 1021.3
20260502063041 48 74 0.0 2.0 0.00 0.39 0.00 90 1021.3
20260502061541 47 74 0.0 0.0 0.00 0.39 0.00 90 1021.2
20260502060038 47 74 0.0 0.0 0.00 0.39 0.00 89 1021.1
20260502054537 47 74 0.0 0.0 0.00 0.39 0.00 88 1021.1
20260502053036 47 74 0.0 0.0 0.00 0.39 0.00 88 1021.1
20260502051534 48 74 0.0 0.0 0.00 0.39 0.00 87 1020.9
20260502050031 48 74 0.0 0.0 0.00 0.39 0.00 86 1021.0
20260502044530 49 74 0.0 0.0 0.00 0.39 0.39 85 1021.0
20260502043027 49 74 0.0 0.0 0.00 0.39 0.39 84 1020.9
20260502041530 50 74 0.0 1.0 0.00 0.39 0.39 83 1020.7
20260502040021 50 74 0.0 0.0 0.00 0.39 0.39 82 1020.6
20260502034520 51 74 0.0 3.0 0.00 0.39 0.39 81 1020.2
20260502033024 51 74 1.0 3.0 0.00 0.39 0.39 80 1020.0
20260502031516 52 74 2.0 4.0 0.00 0.39 0.39 79 1019.7
20260502030014 52 74 1.0 3.0 0.00 0.39 0.39 76 1019.7
20260502024512 53 74 3.0 5.0 0.00 0.39 0.39 75 1019.6
20260502023011 54 72 2.0 6.0 0.00 0.39 0.39 73 1019.4
20260502021511 54 71 3.0 6.0 0.00 0.39 0.39 71 1019.4
20260502020008 54 65 4.0 9.0 0.00 0.39 0.39 71 1019.1
20260502014505 54 66 2.0 5.0 0.00 0.39 0.39 74 1018.8
20260502013003 55 74 3.0 6.0 0.00 0.39 0.39 73 1018.4
20260502011502 55 73 4.0 8.0 0.00 0.39 0.39 72 1018.1
20260502010109 55 55 3.0 11.0 0.00 0.39 0.39 70 1017.8
20260502004658 56 47 6.0 15.0 0.00 0.39 0.39 69 1017.4
20260502003104 56 46 4.0 14.0 0.00 0.39 0.39 71 1017.4
20260502001554 56 61 6.0 14.0 0.00 0.39 0.39 80 1017.1
20260502000053 56 64 7.0 14.0 0.00 0.39 0.39 81 1016.9
20260501234553 56 51 6.0 15.0 0.00 0.39 0.39 80 1016.6
20260501233055 56 58 6.0 13.0 0.00 0.39 0.39 81 1016.5
20260501231554 56 43 7.0 13.0 0.00 0.39 0.39 80 1016.4
20260501230100 56 49 6.0 14.0 0.00 0.39 0.39 79 1016.3
20260501224551 57 44 6.0 15.0 0.00 0.39 0.39 79 1015.9
20260501223057 57 79 7.0 16.0 0.00 0.39 0.39 77 1015.6
20260501221550 56 72 11.0 17.0 0.00 0.39 0.39 78 1015.5
20260501220051 57 57 10.0 18.0 0.00 0.39 0.39 76 1015.5
20260501214555 58 38 10.0 20.0 0.00 0.39 0.39 75 1015.3
20260501213047 57 40 9.0 22.0 0.00 0.39 0.39 77 1015.4
20260501211556 57 76 12.0 20.0 0.00 0.39 0.39 79 1015.2
20260501210048 56 63 10.0 20.0 0.00 0.39 0.39 82 1015.2
20260501204615 57 52 11.0 20.0 0.00 0.39 0.39 83 1015.3
20260501203043 56 51 13.0 24.0 0.01 0.39 0.39 83 1015.9
20260501201644 56 33 13.0 22.0 0.01 0.39 0.39 86 1016.1
20260501200043 55 38 13.0 23.0 0.02 0.39 0.39 91 1016.5